User: anonymous   Login
Location: Unspecified
(0.0000°N, 0.0000°E)
Time: 19:41:21
(UTC+00:00)
Language:

TSUBAME - Orbit

View from above orbital plane
View from above orbital plane
View from above satellite
View from above satellite

Ground track
Ground track

The orbit data is extracted from the following two-line orbital elements,

1 40302U 14070E   19341.51034699  .00000312  00000-0  18427-4 0  9998
2 40302  97.2642  33.4425 0037528 209.6067 264.9318 15.17840422281319
Epoch (UTC): 07 December 2019 12:14:53
Eccentricity: 0.0037528
inclination: 97.2642°
perigee height: 486 km
apogee height: 538 km
right ascension of ascending node: 33.4425°
argument of perigee: 209.6067°
revolutions per day: 15.17840422
mean anomaly at epoch: 264.9318°
orbit number at epoch: 28131

The dashed part of the orbit path shows where the satellite is in the earth's shadow,  

DLR